This is the latest recevied weather packets stored in our database for station/object WA4IKQ. If no packets are shown the sender has not sent any weather packets the latest 10 day(s).
| Time | Temp. | Humidity | Pressure | Rain* | Wind** | Luminosity | Snow |
|---|---|---|---|---|---|---|---|
| 1777845878 | 24.44° C | 58% | 1015.9 hPa | 0 mm | 3.13 m/s, 0° | - | - |
| 1777845282 | 24.44° C | 57% | 1015.9 hPa | 0 mm | 0.89 m/s, 20° | - | - |
| 1777843908 | 24.44° C | 57% | 1015.7 hPa | 0 mm | 2.24 m/s, 66° | - | - |
| 1777843778 | 24.44° C | 57% | 1015.7 hPa | 0 mm | 2.24 m/s, 66° | - | - |
| 1777843401 | 25° C | 56% | 1015.8 hPa | 0 mm | 2.68 m/s, 24° | - | - |
| 1777842994 | 25° C | 56% | 1015.8 hPa | 0 mm | 1.79 m/s, 333° | - | - |
| 1777842654 | 25° C | 56% | 1015.8 hPa | 0 mm | 1.79 m/s, 339° | - | - |
| 1777842367 | 25.56° C | 56% | 1015.8 hPa | 0 mm | 4.02 m/s, 14° | - | - |
| 1777841788 | 25° C | 57% | 1015.8 hPa | 0 mm | 3.58 m/s, 28° | - | - |
| 1777840565 | 25.56° C | 56% | 1016 hPa | 0 mm | 3.58 m/s, 326° | - | - |
| 1777840109 | 25.56° C | 56% | 1015.9 hPa | 0 mm | 2.24 m/s, 46° | - | - |
| 1777839873 | 25.56° C | 56% | 1015.9 hPa | 0 mm | 2.24 m/s, 46° | - | - |
| 1777839701 | 25.56° C | 56% | 1016.1 hPa | 0 mm | 1.34 m/s, 14° | - | - |
| 1777839279 | 25.56° C | 56% | 1016.1 hPa | 0 mm | 1.34 m/s, 14° | - | - |
| 1777838681 | 25° C | 58% | 1016 hPa | 0 mm | 2.24 m/s, 66° | - | - |
| 1777838073 | 25° C | 58% | 1016.2 hPa | 0 mm | 3.13 m/s, 10° | - | - |
| 1777837476 | 25° C | 59% | 1016.4 hPa | 0 mm | 1.79 m/s, 38° | - | - |
| 1777836753 | 24.44° C | 59% | 1016.7 hPa | 0 mm | 1.34 m/s, 353° | - | - |
| 1777835596 | 25° C | 57% | 1016.9 hPa | 0 mm | 0.89 m/s, 339° | - | - |
| 1777835327 | 25.56° C | 57% | 1016.9 hPa | 0 mm | 1.79 m/s, 53° | - | - |
| 1777835073 | 25.56° C | 57% | 1016.9 hPa | 0 mm | 1.79 m/s, 53° | - | - |
| 1777834417 | 25° C | 57% | 1017.1 hPa | 0 mm | 1.34 m/s, 336° | - | - |
| 1777832821 | 25.56° C | 56% | 1017.5 hPa | 0 mm | 1.79 m/s, 336° | - | - |
| 1777831896 | 25.56° C | 56% | 1017.6 hPa | 0 mm | 1.34 m/s, 335° | - | - |
| 1777831589 | 25° C | 56% | 1017.5 hPa | 0 mm | 2.68 m/s, 27° | - | - |
* Rain latest hour (hover to see other rain measurements)
** Current wind speed in m/s (hover to see current wind gust speed)